User: anonymous   Login
Location: Possagno
(45.8500°N, 11.8667°E)
Time: 05:17:55
(UTC+00:00)
Language:

STARLINK-2737 - Orbit

View from above orbital plane
View from above orbital plane
View from above satellite
View from above satellite

Ground track
Ground track

The orbit data is extracted from the following two-line orbital elements,

1 48675C 21044AP  21290.82099788  .00002558  00000-0  17137-3 0  2902
2 48675  53.0543 111.6533 0001679  85.5405 352.1510 15.06395459    17
Epoch (UTC): 17 October 2021 19:42:14
Eccentricity: 0.0001679
inclination: 53.0543°
perigee height: 546 km
apogee height: 548 km
right ascension of ascending node: 111.6533°
argument of perigee: 85.5405°
revolutions per day: 15.06395459
mean anomaly at epoch: 352.1510°
orbit number at epoch: 1

The dashed part of the orbit path shows where the satellite is in the earth's shadow,  

DLR